User: anonymous   Login
Location: Cheching
(60.0667°N, 164.2167°W)
Time: 12:15:17
(UTC+00:00)
Language:

LO-87 - Orbit

View from above orbital plane
View from above orbital plane
View from above satellite
View from above satellite

Ground track
Ground track

The orbit data is extracted from the following two-line orbital elements,

1 41557U 16033B   21016.11992218  .00001743  00000-0  64871-4 0  9993
2 41557  97.3989 110.9967 0014587  59.3847  34.1240 15.28772436258254
Epoch (UTC): 16 January 2021 02:52:41
Eccentricity: 0.0014587
inclination: 97.3989°
perigee height: 469 km
apogee height: 489 km
right ascension of ascending node: 110.9967°
argument of perigee: 59.3847°
revolutions per day: 15.28772436
mean anomaly at epoch: 34.1240°
orbit number at epoch: 25825

The dashed part of the orbit path shows where the satellite is in the earth's shadow,  

DLR